Regional Weather Roundup
Issued by NWS

Home | Current Version | Previous Version | Text Only | Print | Product List | Glossary Off
Versions: 1 2 3 4 5 6 7 8 9 10 11 12 13 14 15 16 17 18 19 20 21 22 23 24 25 26 27 28 29 30 31 32 33 34 35 36 37 38 39 40 41 42 43 44 45 46 47 48 49 50

667
ASUS43 KDMX 230908
RWRIA

WEATHER ROUNDUP FOR IOWA
NATIONAL WEATHER SERVICE DES MOINES IA
400 AM CDT SAT JUL 23 2016

NOTE: "FAIR" INDICATES FEW OR NO CLOUDS BELOW 12,000 FEET WITH NO
SIGNIFICANT WEATHER AND/OR OBSTRUCTIONS TO VISIBILITY.

* - THESE STATIONS ARE NOT NWS STATIONS...THUS NOT UNDER NWS
QUALITY CONTROL.  THEY ALSO DO NOT REPORT WEATHER SUCH
AS PRECIPITATION OR FOG.

IAZ001>003-012>014-020>022-031>034-043>046-231000-
   NORTHWEST IOWA

CITY           SKY/WX    TMP DP  RH WIND       PRES   REMARKS
CARROLL *      MOCLDY    79  77  94 CALM      29.91S HX  83
CHEROKEE *     PTCLDY    79  78  97 SE6       29.90S HX  83
DENISON *      CLOUDY    79  77  94 S10       29.88F HX  83
LE MARS *      CLOUDY    81  77  89 VRB5      29.87F HX  88
SHELDON *      CLOUDY    79  79 100 E7        29.89S HX  83
SIOUX CITY     MOCLDY    81  78  91 SE9       29.85F HX  89
SPENCER        CLOUDY    79  76  90 SE8       29.92R HX  83
STORM LAKE *   MOCLDY    77  77 100 SE7       29.93S
$$

IAZ055>058-069>071-079>083-090>094-231000-
   SOUTHWEST IOWA

CITY           SKY/WX    TMP DP  RH WIND       PRES   REMARKS
ATLANTIC *     PTCLDY    79  75  89 S7        29.91F HX  82
CLARINDA *       N/A     79  77  94 MISG      29.94F HX  83
COUNCIL BLFS * PTCLDY    82  73  74 S9        29.89F HX  88
CRESTON *      CLOUDY    79  77  94 S13       29.95F HX  83
HARLAN  *      CLOUDY    79  77  94 S7        29.94F HX  83
LAMONI         CLOUDY    78  77  96 S10       29.94F HX  81
RED OAK *      CLOUDY    81  77  89 SE6       29.92S HX  88
SHENANDOAH *   CLOUDY    81  77  89 S8        29.91S HX  88
$$

IAZ047>049-059>061-072>074-084-231000-
   CENTRAL IOWA

CITY           SKY/WX    TMP DP  RH WIND       PRES   REMARKS
AMES           CLEAR     77  77 100 SE6       29.91F
ANKENY *         N/A    N/A N/A N/A MISG        N/A
BOONE *        PTCLDY    77  77 100 SE6       29.92S
CHARITON *       N/A    N/A N/A N/A MISG        N/A
DES MOINES     PTCLDY    80  76  87 S12       29.90F HX  86
GRINNELL*      CLOUDY    76  73  91 E3        29.97F
KNOXVILLE *    CLEAR     77  73  88 S7        29.92F
MARSHALLTOWN   CLEAR     75  75 100 SE7       29.93F
NEWTON *       CLOUDY    77  77 100 E6        29.93F
PELLA *        CLOUDY    77  74  93 SE5       29.94F
PERRY *          N/A     78  77  98 S7        29.91F HX  80
$$

IAZ004>006-015-016-023>025-035-036-231000-
   NORTH CENTRAL IOWA

CITY           SKY/WX    TMP DP  RH WIND       PRES   REMARKS
ALGONA *       CLOUDY    79  77  94 SE7       29.94S HX  83
ESTHERVILLE    CLOUDY    77  77 100 SE6       29.93S
FORT DODGE *   MOCLDY    79  77  94 SE5       29.93S HX  83
MASON CITY     PTCLDY    76  75  97 E6        29.97F
FOREST CITY *    N/A     75  75 100 E5        29.96S
IOWA FALLS *     N/A     77  75  93 SE5       29.95F
$$

IAZ007>011-017>019-026>030-037>042-050>054-066-231000-
   NORTHEAST IOWA

CITY           SKY/WX    TMP DP  RH WIND       PRES   REMARKS
CEDAR RAPIDS   CLEAR     76  76 100 E5        29.96F
CHARLES CITY * CLOUDY    77  77 100 SE6       29.97F FOG
CLINTON *      MOCLDY    76  75  97 CALM      29.99S
DECORAH *      CLOUDY    77  77 100 CALM      29.98S FOG
DUBUQUE        CLOUDY    77  75  93 CALM      30.00F
MONTICELLO *   CLOUDY    75  75 100 CALM      29.98F
OELWEIN *      PTCLDY    75  75 100 SE6       29.98F FOG
WATERLOO       CLEAR     77  75  93 E6        29.94F
$$

IAZ064-065-067-068-078-231000-
   EAST CENTRAL IOWA

CITY           SKY/WX    TMP DP  RH WIND       PRES   REMARKS
DAVENPORT      MOCLDY    74  72  93 CALM      29.99S
IOWA CITY      PTCLDY    77  75  93 SE3       29.98F
MT. PLEASANT * CLEAR     78  78 100 S3        29.98S HX  81
MUSCATINE *    CLEAR     75  73  94 CALM      29.98R FOG
QUAD CITIES    CLEAR     76  74  93 CALM      29.98R
$$

IAZ062-063-075>077-085>089-095>099-231000-
   SOUTHEAST IOWA

CITY           SKY/WX    TMP DP  RH WIND       PRES   REMARKS
BURLINGTON     CLEAR     75  75 100 SW6       29.97S
FAIRFIELD *    CLOUDY    77  75  94 CALM      29.97S
KEOKUK *       CLEAR     77  75  94 CALM      29.97S
CENTERVILLE *    N/A     75  75 100 CALM      29.99S
OTTUMWA        CLOUDY    77  74  90 S6        29.95F
WASHINGTON *   FOG       75  75 100 SE3       29.98S VSB 1
$$

ABBREVIATIONS USED IN REMARKS
   TC - TEMPERATURES IN CELSIUS
  WCI - WIND CHILL INDEX
   HX - HEAT INDEX
  VSB - VISIBILITY
$$





USA.gov is the U.S. government's official web portal to all federal, state and local government web resources and services.